Time,TemperatureF,DewpointF,PressureIn,WindDirection,WindDirectionDegrees,WindSpeedMPH,WindSpeedGustMPH,Humidity,HourlyPrecipIn,Conditions,Clouds,dailyrainin,SoftwareType,DateUTC
2013-02-02 00:01:00,54.0,22.0,-100.00,ENE,58,15.0,22.0,29,-99.99,,,-99.99,,2013-02-02 08:01:00,
2013-02-02 00:11:00,54.0,22.0,-100.00,NE,56,15.0,21.0,29,-99.99,,,-99.99,,2013-02-02 08:11:00,
2013-02-02 00:21:00,54.0,22.0,-100.00,ENE,57,16.0,22.0,28,-99.99,,,-99.99,,2013-02-02 08:21:00,
2013-02-02 00:31:00,55.0,21.0,-100.00,NE,54,15.0,21.0,26,-99.99,,,-99.99,,2013-02-02 08:31:00,
2013-02-02 00:41:00,55.0,21.0,-100.00,NE,54,15.0,21.0,26,-99.99,,,-99.99,,2013-02-02 08:41:00,
2013-02-02 00:52:00,54.0,19.0,-100.00,NE,53,15.0,20.0,25,-99.99,,,-99.99,,2013-02-02 08:52:00,
2013-02-02 01:01:00,54.0,18.0,-100.00,NE,51,15.0,20.0,24,-99.99,,,-99.99,,2013-02-02 09:01:00,
2013-02-02 01:11:00,54.0,18.0,-100.00,NE,49,14.0,19.0,24,-99.99,,,-99.99,,2013-02-02 09:11:00,
2013-02-02 01:22:00,54.0,18.0,-100.00,NE,48,14.0,20.0,24,-99.99,,,-99.99,,2013-02-02 09:22:00,
2013-02-02 01:31:00,54.0,18.0,-100.00,NE,49,14.0,19.0,24,-99.99,,,-99.99,,2013-02-02 09:31:00,
2013-02-02 01:41:00,54.0,17.0,-100.00,NE,52,15.0,21.0,23,-99.99,,,-99.99,,2013-02-02 09:41:00,
2013-02-02 01:52:00,54.0,17.0,-100.00,NE,55,16.0,21.0,23,-99.99,,,-99.99,,2013-02-02 09:52:00,
2013-02-02 02:01:00,54.0,17.0,-100.00,NE,55,15.0,20.0,23,-99.99,,,-99.99,,2013-02-02 10:01:00,
2013-02-02 02:11:00,54.0,17.0,-100.00,NE,55,16.0,23.0,23,-99.99,,,-99.99,,2013-02-02 10:11:00,
2013-02-02 02:21:00,54.0,17.0,-100.00,NE,54,15.0,21.0,23,-99.99,,,-99.99,,2013-02-02 10:21:00,
2013-02-02 02:31:00,54.0,17.0,-100.00,NE,54,15.0,21.0,23,-99.99,,,-99.99,,2013-02-02 10:31:00,
2013-02-02 02:41:00,54.0,17.0,-100.00,NE,55,15.0,20.0,23,-99.99,,,-99.99,,2013-02-02 10:41:00,
2013-02-02 02:51:00,54.0,17.0,-100.00,NE,51,15.0,20.0,23,-99.99,,,-99.99,,2013-02-02 10:51:00,
2013-02-02 03:01:00,54.0,17.0,-100.00,NE,52,13.0,17.0,23,-99.99,,,-99.99,,2013-02-02 11:01:00,
2013-02-02 03:11:00,54.0,17.0,-100.00,NE,51,13.0,18.0,23,-99.99,,,-99.99,,2013-02-02 11:11:00,
2013-02-02 03:21:00,54.0,17.0,-100.00,NE,48,13.0,19.0,23,-99.99,,,-99.99,,2013-02-02 11:21:00,
2013-02-02 03:31:00,54.0,17.0,-100.00,NE,47,13.0,18.0,23,-99.99,,,-99.99,,2013-02-02 11:31:00,
2013-02-02 03:41:00,54.0,18.0,-100.00,NE,52,14.0,19.0,24,-99.99,,,-99.99,,2013-02-02 11:41:00,
2013-02-02 03:52:00,54.0,19.0,-100.00,NE,53,14.0,19.0,25,-99.99,,,-99.99,,2013-02-02 11:52:00,
2013-02-02 04:01:00,54.0,19.0,-100.00,NE,49,13.0,19.0,25,-99.99,,,-99.99,,2013-02-02 12:01:00,
2013-02-02 04:11:00,54.0,18.0,-100.00,NE,47,12.0,19.0,24,-99.99,,,-99.99,,2013-02-02 12:11:00,
2013-02-02 04:22:00,54.0,19.0,-100.00,NE,49,14.0,19.0,25,-99.99,,,-99.99,,2013-02-02 12:22:00,
2013-02-02 04:32:00,54.0,18.0,-100.00,NE,49,12.0,16.0,24,-99.99,,,-99.99,,2013-02-02 12:32:00,
2013-02-02 04:42:00,54.0,15.0,-100.00,NE,50,14.0,19.0,21,-99.99,,,-99.99,,2013-02-02 12:42:00,
2013-02-02 04:52:00,54.0,17.0,-100.00,NE,46,13.0,18.0,23,-99.99,,,-99.99,,2013-02-02 12:52:00,
2013-02-02 05:02:00,53.0,18.0,-100.00,NE,46,13.0,19.0,25,-99.99,,,-99.99,,2013-02-02 13:02:00,
2013-02-02 05:11:00,53.0,19.0,-100.00,NE,50,13.0,18.0,26,-99.99,,,-99.99,,2013-02-02 13:11:00,
2013-02-02 05:21:00,53.0,20.0,-100.00,NE,52,14.0,19.0,27,-99.99,,,-99.99,,2013-02-02 13:21:00,
2013-02-02 05:32:00,53.0,20.0,-100.00,NE,55,14.0,19.0,27,-99.99,,,-99.99,,2013-02-02 13:32:00,
2013-02-02 05:42:00,53.0,20.0,-100.00,NE,55,14.0,19.0,27,-99.99,,,-99.99,,2013-02-02 13:42:00,
2013-02-02 05:51:00,53.0,20.0,-100.00,NE,53,14.0,18.0,27,-99.99,,,-99.99,,2013-02-02 13:51:00,
2013-02-02 06:01:00,53.0,21.0,-100.00,NE,53,14.0,19.0,28,-99.99,,,-99.99,,2013-02-02 14:01:00,
2013-02-02 06:11:00,53.0,21.0,-100.00,NE,52,14.0,19.0,28,-99.99,,,-99.99,,2013-02-02 14:11:00,
2013-02-02 06:22:00,53.0,21.0,-100.00,NE,53,15.0,20.0,28,-99.99,,,-99.99,,2013-02-02 14:22:00,
2013-02-02 06:32:00,53.0,20.0,-100.00,NE,54,16.0,21.0,27,-99.99,,,-99.99,,2013-02-02 14:32:00,
2013-02-02 06:42:00,53.0,19.0,-100.00,NE,55,16.0,22.0,26,-99.99,,,-99.99,,2013-02-02 14:42:00,
2013-02-02 06:52:00,53.0,19.0,-100.00,NE,56,15.0,23.0,26,-99.99,,,-99.99,,2013-02-02 14:52:00,
2013-02-02 07:02:00,53.0,19.0,-100.00,NE,56,16.0,24.0,26,-99.99,,,-99.99,,2013-02-02 15:02:00,
2013-02-02 07:11:00,53.0,19.0,-100.00,NE,56,18.0,23.0,26,-99.99,,,-99.99,,2013-02-02 15:11:00,
2013-02-02 07:21:00,53.0,20.0,-100.00,NE,54,18.0,23.0,27,-99.99,,,-99.99,,2013-02-02 15:21:00,
2013-02-02 07:32:00,53.0,20.0,-100.00,NE,53,17.0,24.0,27,-99.99,,,-99.99,,2013-02-02 15:32:00,
2013-02-02 07:42:00,53.0,20.0,-100.00,NE,53,17.0,23.0,27,-99.99,,,-99.99,,2013-02-02 15:42:00,
2013-02-02 07:52:00,53.0,21.0,-100.00,NE,52,17.0,22.0,28,-99.99,,,-99.99,,2013-02-02 15:52:00,
2013-02-02 08:02:00,53.0,21.0,-100.00,NE,51,17.0,22.0,28,-99.99,,,-99.99,,2013-02-02 16:02:00,
2013-02-02 08:11:00,53.0,21.0,-100.00,NE,49,17.0,22.0,28,-99.99,,,-99.99,,2013-02-02 16:11:00,
2013-02-02 08:22:00,54.0,22.0,-100.00,NE,52,17.0,24.0,28,-99.99,,,-99.99,,2013-02-02 16:22:00,
2013-02-02 08:31:00,54.0,22.0,-100.00,NE,51,16.0,23.0,28,-99.99,,,-99.99,,2013-02-02 16:31:00,
2013-02-02 08:42:00,54.0,22.0,-100.00,NE,55,17.0,23.0,28,-99.99,,,-99.99,,2013-02-02 16:42:00,
2013-02-02 08:51:00,55.0,23.0,-100.00,NE,50,16.0,22.0,28,-99.99,,,-99.99,,2013-02-02 16:51:00,
2013-02-02 09:02:00,55.0,23.0,-100.00,NE,50,16.0,22.0,28,-99.99,,,-99.99,,2013-02-02 17:02:00,
2013-02-02 09:11:00,56.0,23.0,-100.00,NE,53,16.0,22.0,27,-99.99,,,-99.99,,2013-02-02 17:11:00,
2013-02-02 09:22:00,56.0,23.0,-100.00,NE,56,18.0,25.0,27,-99.99,,,-99.99,,2013-02-02 17:22:00,
2013-02-02 09:31:00,57.0,23.0,-100.00,NE,56,17.0,24.0,27,-99.99,,,-99.99,,2013-02-02 17:31:00,
2013-02-02 09:41:00,57.0,22.0,-100.00,NE,56,18.0,26.0,26,-99.99,,,-99.99,,2013-02-02 17:41:00,
2013-02-02 09:52:00,58.0,22.0,-100.00,NE,56,16.0,23.0,25,-99.99,,,-99.99,,2013-02-02 17:52:00,
2013-02-02 10:02:00,58.0,22.0,-100.00,NE,56,16.0,23.0,25,-99.99,,,-99.99,,2013-02-02 18:02:00,
2013-02-02 10:11:00,58.0,22.0,-100.00,ENE,59,16.0,22.0,25,-99.99,,,-99.99,,2013-02-02 18:11:00,
2013-02-02 10:21:00,59.0,22.0,-100.00,NE,50,15.0,21.0,24,-99.99,,,-99.99,,2013-02-02 18:21:00,
2013-02-02 10:31:00,59.0,21.0,-100.00,NE,55,16.0,22.0,23,-99.99,,,-99.99,,2013-02-02 18:31:00,
2013-02-02 10:41:00,59.0,21.0,-100.00,NE,51,15.0,22.0,23,-99.99,,,-99.99,,2013-02-02 18:41:00,
2013-02-02 10:52:00,59.0,21.0,-100.00,ENE,62,16.0,25.0,23,-99.99,,,-99.99,,2013-02-02 18:52:00,
2013-02-02 11:01:00,59.0,20.0,-100.00,ENE,60,17.0,24.0,22,-99.99,,,-99.99,,2013-02-02 19:01:00,
2013-02-02 11:11:00,59.0,20.0,-100.00,ENE,57,18.0,26.0,22,-99.99,,,-99.99,,2013-02-02 19:11:00,
2013-02-02 11:21:00,58.0,20.0,-100.00,NE,55,19.0,25.0,23,-99.99,,,-99.99,,2013-02-02 19:21:00,
2013-02-02 11:31:00,59.0,21.0,-100.00,NE,53,18.0,24.0,23,-99.99,,,-99.99,,2013-02-02 19:31:00,
2013-02-02 11:41:00,59.0,21.0,-100.00,NE,53,18.0,27.0,23,-99.99,,,-99.99,,2013-02-02 19:41:00,
2013-02-02 11:51:00,60.0,21.0,-100.00,NE,52,17.0,25.0,22,-99.99,,,-99.99,,2013-02-02 19:51:00,
2013-02-02 12:01:00,60.0,21.0,-100.00,ENE,60,18.0,25.0,22,-99.99,,,-99.99,,2013-02-02 20:01:00,
2013-02-02 12:11:00,60.0,21.0,-100.00,ENE,58,18.0,25.0,22,-99.99,,,-99.99,,2013-02-02 20:11:00,
2013-02-02 12:21:00,60.0,21.0,-100.00,NE,54,16.0,24.0,22,-99.99,,,-99.99,,2013-02-02 20:21:00,
2013-02-02 12:32:00,61.0,21.0,-100.00,NE,54,17.0,22.0,21,-99.99,,,-99.99,,2013-02-02 20:32:00,
2013-02-02 12:41:00,61.0,21.0,-100.00,NE,54,17.0,23.0,21,-99.99,,,-99.99,,2013-02-02 20:41:00,
2013-02-02 12:52:00,61.0,21.0,-100.00,NE,55,17.0,25.0,21,-99.99,,,-99.99,,2013-02-02 20:52:00,
2013-02-02 13:01:00,61.0,20.0,-100.00,ENE,59,16.0,23.0,20,-99.99,,,-99.99,,2013-02-02 21:01:00,
2013-02-02 13:11:00,62.0,20.0,-100.00,NE,54,14.0,22.0,20,-99.99,,,-99.99,,2013-02-02 21:11:00,
2013-02-02 13:21:00,62.0,20.0,-100.00,NE,51,16.0,22.0,20,-99.99,,,-99.99,,2013-02-02 21:21:00,
2013-02-02 13:32:00,61.0,20.0,-100.00,NE,54,15.0,22.0,20,-99.99,,,-99.99,,2013-02-02 21:32:00,
2013-02-02 13:42:00,61.0,20.0,-100.00,NE,54,15.0,22.0,20,-99.99,,,-99.99,,2013-02-02 21:42:00,
2013-02-02 13:51:00,62.0,19.0,-100.00,NE,51,17.0,22.0,19,-99.99,,,-99.99,,2013-02-02 21:51:00,
2013-02-02 14:02:00,62.0,19.0,-100.00,NE,54,14.0,20.0,19,-99.99,,,-99.99,,2013-02-02 22:02:00,
2013-02-02 14:11:00,61.0,20.0,-100.00,ENE,59,14.0,20.0,20,-99.99,,,-99.99,,2013-02-02 22:11:00,
2013-02-02 14:21:00,60.0,19.0,-100.00,ENE,57,14.0,22.0,20,-99.99,,,-99.99,,2013-02-02 22:21:00,
2013-02-02 14:32:00,60.0,20.0,-100.00,NE,56,13.0,22.0,21,-99.99,,,-99.99,,2013-02-02 22:32:00,
2013-02-02 14:41:00,60.0,20.0,-100.00,NE,52,14.0,20.0,21,-99.99,,,-99.99,,2013-02-02 22:41:00,
2013-02-02 14:52:00,59.0,20.0,-100.00,NE,56,13.0,18.0,22,-99.99,,,-99.99,,2013-02-02 22:52:00,
2013-02-02 15:01:00,59.0,20.0,-100.00,NE,56,13.0,18.0,22,-99.99,,,-99.99,,2013-02-02 23:01:00,
2013-02-02 15:11:00,59.0,21.0,-100.00,NE,51,13.0,19.0,23,-99.99,,,-99.99,,2013-02-02 23:11:00,
2013-02-02 15:21:00,59.0,22.0,-100.00,NE,48,11.0,18.0,24,-99.99,,,-99.99,,2013-02-02 23:21:00,
2013-02-02 15:32:00,59.0,22.0,-100.00,NE,50,12.0,17.0,24,-99.99,,,-99.99,,2013-02-02 23:32:00,
2013-02-02 15:41:00,58.0,22.0,-100.00,NE,53,11.0,17.0,25,-99.99,,,-99.99,,2013-02-02 23:41:00,
2013-02-02 15:52:00,58.0,21.0,-100.00,NE,52,11.0,17.0,24,-99.99,,,-99.99,,2013-02-02 23:52:00,
2013-02-02 16:01:00,58.0,21.0,-100.00,NE,49,11.0,19.0,24,-99.99,,,-99.99,,2013-02-03 00:01:00,
2013-02-02 16:11:00,58.0,22.0,-100.00,NE,50,11.0,18.0,25,-99.99,,,-99.99,,2013-02-03 00:11:00,
2013-02-02 16:21:00,58.0,22.0,-100.00,NE,51,11.0,16.0,25,-99.99,,,-99.99,,2013-02-03 00:21:00,
2013-02-02 16:31:00,57.0,22.0,-100.00,NE,52,11.0,16.0,25,-99.99,,,-99.99,,2013-02-03 00:31:00,
2013-02-02 16:41:00,57.0,22.0,-100.00,NE,56,11.0,16.0,26,-99.99,,,-99.99,,2013-02-03 00:41:00,
2013-02-02 16:51:00,57.0,22.0,-100.00,NE,53,11.0,15.0,26,-99.99,,,-99.99,,2013-02-03 00:51:00,
2013-02-02 17:01:00,57.0,23.0,-100.00,NE,54,11.0,16.0,27,-99.99,,,-99.99,,2013-02-03 01:01:00,
2013-02-02 17:11:00,57.0,23.0,-100.00,NE,51,11.0,16.0,27,-99.99,,,-99.99,,2013-02-03 01:11:00,
2013-02-02 17:21:00,57.0,22.0,-100.00,NE,52,10.0,16.0,26,-99.99,,,-99.99,,2013-02-03 01:21:00,
2013-02-02 17:32:00,57.0,22.0,-100.00,NE,51,10.0,14.0,26,-99.99,,,-99.99,,2013-02-03 01:32:00,
2013-02-02 17:41:00,56.0,23.0,-100.00,NE,49,9.0,13.0,27,-99.99,,,-99.99,,2013-02-03 01:41:00,
2013-02-02 17:51:00,56.0,23.0,-100.00,NE,51,9.0,12.0,27,-99.99,,,-99.99,,2013-02-03 01:51:00,
2013-02-02 18:01:00,56.0,23.0,-100.00,NE,53,8.0,12.0,27,-99.99,,,-99.99,,2013-02-03 02:01:00,
2013-02-02 18:11:00,56.0,23.0,-100.00,NE,49,9.0,13.0,27,-99.99,,,-99.99,,2013-02-03 02:11:00,
2013-02-02 18:21:00,56.0,23.0,-100.00,NE,42,8.0,11.0,27,-99.99,,,-99.99,,2013-02-03 02:21:00,
2013-02-02 18:31:00,56.0,23.0,-100.00,NE,46,7.0,9.0,27,-99.99,,,-99.99,,2013-02-03 02:31:00,
2013-02-02 18:41:00,56.0,21.0,-100.00,NE,46,6.0,8.0,25,-99.99,,,-99.99,,2013-02-03 02:41:00,
2013-02-02 18:52:00,56.0,21.0,-100.00,NE,41,5.0,8.0,25,-99.99,,,-99.99,,2013-02-03 02:52:00,
2013-02-02 19:01:00,56.0,20.0,-100.00,NNE,29,6.0,7.0,24,-99.99,,,-99.99,,2013-02-03 03:01:00,
2013-02-02 19:11:00,57.0,19.0,-100.00,NE,39,5.0,7.0,22,-99.99,,,-99.99,,2013-02-03 03:11:00,
2013-02-02 19:21:00,57.0,19.0,-100.00,NE,42,4.0,5.0,22,-99.99,,,-99.99,,2013-02-03 03:21:00,
2013-02-02 19:31:00,57.0,17.0,-100.00,NE,41,3.0,4.0,21,-99.99,,,-99.99,,2013-02-03 03:31:00,
2013-02-02 19:41:00,58.0,17.0,-100.00,NNE,31,3.0,4.0,20,-99.99,,,-99.99,,2013-02-03 03:41:00,
2013-02-02 19:51:00,57.0,17.0,-100.00,NE,41,3.0,4.0,21,-99.99,,,-99.99,,2013-02-03 03:51:00,
2013-02-02 20:01:00,57.0,17.0,-100.00,North,5,0.0,1.0,21,-99.99,,,-99.99,,2013-02-03 04:01:00,
2013-02-02 20:11:00,57.0,17.0,-100.00,ENE,76,1.0,5.0,21,-99.99,,,-99.99,,2013-02-03 04:11:00,
2013-02-02 20:21:00,57.0,19.0,-100.00,East,89,2.0,5.0,22,-99.99,,,-99.99,,2013-02-03 04:21:00,
2013-02-02 20:31:00,57.0,22.0,-100.00,North,4,1.0,3.0,25,-99.99,,,-99.99,,2013-02-03 04:31:00,
2013-02-02 20:42:00,57.0,22.0,-100.00,NE,45,1.0,2.0,25,-99.99,,,-99.99,,2013-02-03 04:42:00,
2013-02-02 20:51:00,57.0,23.0,-100.00,NW,305,1.0,3.0,27,-99.99,,,-99.99,,2013-02-03 04:51:00,
2013-02-02 21:03:00,57.0,25.0,-100.00,NNW,328,1.0,3.0,29,-99.99,,,-99.99,,2013-02-03 05:03:00,
2013-02-02 21:11:00,57.0,23.0,-100.00,SE,136,0.0,1.0,27,-99.99,,,-99.99,,2013-02-03 05:11:00,
2013-02-02 21:22:00,57.0,22.0,-100.00,SE,128,1.0,2.0,25,-99.99,,,-99.99,,2013-02-03 05:22:00,
2013-02-02 21:31:00,56.0,21.0,-100.00,East,98,2.0,2.0,25,-99.99,,,-99.99,,2013-02-03 05:31:00,
2013-02-02 21:41:00,56.0,21.0,-100.00,East,93,2.0,2.0,25,-99.99,,,-99.99,,2013-02-03 05:41:00,
2013-02-02 21:52:00,56.0,21.0,-100.00,ESE,114,1.0,2.0,25,-99.99,,,-99.99,,2013-02-03 05:52:00,
2013-02-02 22:02:00,56.0,22.0,-100.00,ESE,112,2.0,2.0,26,-99.99,,,-99.99,,2013-02-03 06:02:00,
2013-02-02 22:11:00,56.0,22.0,-100.00,East,101,2.0,3.0,26,-99.99,,,-99.99,,2013-02-03 06:11:00,
2013-02-02 22:21:00,56.0,22.0,-100.00,East,92,2.0,3.0,26,-99.99,,,-99.99,,2013-02-03 06:21:00,
2013-02-02 22:31:00,56.0,23.0,-100.00,SE,137,1.0,1.0,27,-99.99,,,-99.99,,2013-02-03 06:31:00,
2013-02-02 22:41:00,57.0,25.0,-100.00,NNW,337,2.0,3.0,29,-99.99,,,-99.99,,2013-02-03 06:41:00,
2013-02-02 22:52:00,57.0,24.0,-100.00,NNW,348,2.0,3.0,28,-99.99,,,-99.99,,2013-02-03 06:52:00,
2013-02-02 23:01:00,56.0,23.0,-100.00,NNE,17,3.0,4.0,27,-99.99,,,-99.99,,2013-02-03 07:01:00,
2013-02-02 23:11:00,56.0,24.0,-100.00,NE,41,3.0,4.0,29,-99.99,,,-99.99,,2013-02-03 07:11:00,
2013-02-02 23:21:00,56.0,23.0,-100.00,ENE,68,3.0,4.0,28,-99.99,,,-99.99,,2013-02-03 07:21:00,
2013-02-02 23:31:00,56.0,24.0,-100.00,ENE,78,3.0,4.0,29,-99.99,,,-99.99,,2013-02-03 07:31:00,
2013-02-02 23:41:00,57.0,23.0,-100.00,ENE,60,3.0,4.0,27,-99.99,,,-99.99,,2013-02-03 07:41:00,
2013-02-02 23:52:00,57.0,24.0,-100.00,NE,52,4.0,5.0,28,-99.99,,,-99.99,,2013-02-03 07:52:00,